TimeWEST,TemperatureF,Dew PointF,Humidity,Sea Level PressureIn,VisibilityMPH,Wind Direction,Wind SpeedMPH,Gust SpeedMPH,PrecipitationIn,Events,Conditions,WindDirDegrees,DateUTC
12:00 AM,59.0,48.2,67,30.12,6.2,NW,9.2,-,N/A,,Mostly Cloudy,310,2013-05-20 23:00:00
12:30 AM,59.0,50.0,72,30.12,6.2,WNW,10.4,-,N/A,,Mostly Cloudy,290,2013-05-20 23:30:00
1:00 AM,58,49,62,30.11,6,WNW,9.2,,,,Mostly Cloudy,300,2013-05-21 00:00:00
1:00 AM,59.0,48.2,67,30.12,6.2,WNW,9.2,-,N/A,,Mostly Cloudy,300,2013-05-21 00:00:00
3:00 AM,57.2,50.0,77,30.09,6.2,WNW,4.6,-,N/A,,Mostly Cloudy,290,2013-05-21 02:00:00
3:30 AM,57.2,50.0,77,30.09,6.2,Calm,Calm,-,N/A,,Mostly Cloudy,0,2013-05-21 02:30:00
4:00 AM,56,49,72,30.10,6,NW,3.5,,,,Mostly Cloudy,320,2013-05-21 03:00:00
4:00 AM,55.4,50.0,82,30.09,6.2,NW,2.3,-,N/A,,Mostly Cloudy,320,2013-05-21 03:00:00
4:30 AM,55.4,48.2,77,30.09,6.2,Calm,Calm,-,N/A,,Mostly Cloudy,0,2013-05-21 03:30:00
5:00 AM,55.4,48.2,77,30.09,6.2,Calm,Calm,-,N/A,,Mostly Cloudy,0,2013-05-21 04:00:00
5:30 AM,55.4,48.2,77,30.09,6.2,Calm,Calm,-,N/A,,Mostly Cloudy,0,2013-05-21 04:30:00
6:00 AM,55.4,46.4,72,30.09,6.2,Calm,Calm,-,N/A,,Mostly Cloudy,0,2013-05-21 05:00:00
6:30 AM,53.6,46.4,77,30.12,6.2,Calm,Calm,-,N/A,,Mostly Cloudy,0,2013-05-21 05:30:00
7:00 AM,54,46,68,30.13,6,Calm,Calm,,,,Mostly Cloudy,,2013-05-21 06:00:00
7:00 AM,53.6,46.4,77,30.12,6.2,Calm,Calm,-,N/A,,Mostly Cloudy,0,2013-05-21 06:00:00
7:30 AM,55.4,48.2,77,30.12,6.2,Calm,Calm,-,N/A,,Mostly Cloudy,0,2013-05-21 06:30:00
8:00 AM,55.4,48.2,77,30.12,6.2,Calm,Calm,-,N/A,,Mostly Cloudy,0,2013-05-21 07:00:00
8:30 AM,55.4,48.2,77,30.12,6.2,Calm,Calm,-,N/A,,Mostly Cloudy,0,2013-05-21 07:30:00
9:00 AM,57.2,48.2,72,30.12,6.2,NE,1.2,-,N/A,,Mostly Cloudy,50,2013-05-21 08:00:00
9:30 AM,57.2,48.2,72,30.15,6.2,NNE,5.8,-,N/A,,Mostly Cloudy,30,2013-05-21 08:30:00
10:00 AM,58,46,56,30.14,6,ENE,4.6,,,,Mostly Cloudy,70,2013-05-21 09:00:00
10:00 AM,59.0,46.4,63,30.15,6.2,ENE,5.8,-,N/A,,Mostly Cloudy,60,2013-05-21 09:00:00
10:30 AM,59.0,46.4,63,30.12,6.2,NE,5.8,-,N/A,,Mostly Cloudy,50,2013-05-21 09:30:00
11:00 AM,60.8,44.6,55,30.12,6.2,NE,5.8,-,N/A,,Mostly Cloudy,40,2013-05-21 10:00:00
11:30 AM,62.6,44.6,52,30.12,6.2,Calm,Calm,-,N/A,,Mostly Cloudy,0,2013-05-21 10:30:00
12:00 PM,64.4,41.0,42,30.12,6.2,NE,3.5,-,N/A,,Mostly Cloudy,50,2013-05-21 11:00:00
12:30 PM,66.2,41.0,40,30.12,6.2,Variable,2.3,-,N/A,,Mostly Cloudy,0,2013-05-21 11:30:00
1:00 PM,67,39,25,30.08,6,North,8.1,,,,Mostly Cloudy,350,2013-05-21 12:00:00
1:00 PM,66.2,41.0,40,30.12,6.2,North,9.2,-,N/A,,Mostly Cloudy,360,2013-05-21 12:00:00
1:30 PM,68.0,41.0,37,30.09,6.2,NE,8.1,-,N/A,,Mostly Cloudy,40,2013-05-21 12:30:00
2:00 PM,68.0,39.2,35,30.09,6.2,ENE,5.8,-,N/A,,Scattered Clouds,60,2013-05-21 13:00:00
2:30 PM,68.0,37.4,33,30.09,6.2,Variable,4.6,-,N/A,,Scattered Clouds,0,2013-05-21 13:30:00
3:00 PM,69.8,37.4,31,30.06,6.2,Variable,4.6,-,N/A,,Partly Cloudy,0,2013-05-21 14:00:00
3:30 PM,69.8,37.4,31,30.06,6.2,Variable,6.9,-,N/A,,Partly Cloudy,0,2013-05-21 14:30:00
4:00 PM,71,36,17,30.01,6,NE,8.1,,,,Scattered Clouds,40,2013-05-21 15:00:00
4:00 PM,71.6,37.4,29,30.06,6.2,NNE,8.1,-,N/A,,Partly Cloudy,30,2013-05-21 15:00:00
4:30 PM,71.6,35.6,27,30.06,6.2,NE,9.2,-,N/A,,Partly Cloudy,40,2013-05-21 15:30:00
5:00 PM,71.6,35.6,27,30.06,6.2,NE,9.2,-,N/A,,Partly Cloudy,40,2013-05-21 16:00:00
5:30 PM,71.6,35.6,27,30.06,6.2,North,9.2,-,N/A,,Partly Cloudy,10,2013-05-21 16:30:00
6:00 PM,71.6,35.6,27,30.06,6.2,NE,8.1,-,N/A,,Partly Cloudy,40,2013-05-21 17:00:00
6:30 PM,71.6,35.6,27,30.04,6.2,NE,6.9,-,N/A,,Partly Cloudy,50,2013-05-21 17:30:00
7:00 PM,71,36,17,30.00,6,NE,11.5,,,,Scattered Clouds,40,2013-05-21 18:00:00
7:00 PM,71.6,35.6,27,30.04,6.2,NNE,10.4,-,N/A,,Partly Cloudy,30,2013-05-21 18:00:00
7:30 PM,71.6,35.6,27,30.06,6.2,NNE,9.2,-,N/A,,Partly Cloudy,30,2013-05-21 18:30:00
8:00 PM,69.8,37.4,31,30.06,6.2,NNE,10.4,-,N/A,,Partly Cloudy,30,2013-05-21 19:00:00
8:30 PM,68.0,37.4,33,30.06,-9999.0,NE,9.2,-,N/A,,Clear,50,2013-05-21 19:30:00
9:00 PM,68.0,37.4,33,30.06,-9999.0,NNE,8.1,-,N/A,,Clear,30,2013-05-21 20:00:00
9:30 PM,66.2,37.4,35,30.09,-9999.0,NE,6.9,-,N/A,,Clear,40,2013-05-21 20:30:00
10:00 PM,67,39,24,30.06,6,NE,8.1,,,,,50,2013-05-21 21:00:00
10:00 PM,66.2,39.2,37,30.09,-9999.0,NE,8.1,-,N/A,,Clear,50,2013-05-21 21:00:00
10:30 PM,66.2,41.0,40,30.09,-9999.0,NE,8.1,-,N/A,,Clear,40,2013-05-21 21:30:00
11:00 PM,64.4,41.0,42,30.09,-9999.0,NE,8.1,-,N/A,,Clear,40,2013-05-21 22:00:00
11:30 PM,62.6,44.6,52,30.09,-9999.0,NE,13.8,-,N/A,,Clear,40,2013-05-21 22:30:00